When you browse on this site, cookies collect data to enhance your experience and personalize the content and advertising you see.
Visit our Privacy Policy to learn more. By continuing to use the site, you agree to this use of cookies and data.
  • In Sweden
  • List of Countries
  • For 7 days
  • Water Temperature
  • Weather Map
  • Weather Widgets
  • user-avatar
    Login

    Hourly Weather Bolehov

    Today, 3 June, Wednesday

    Time Temperature Precipitation Wind Pressure Humidity
    00:00 +8°C° 0.5 mm 3 mps 720 mmHg 95%
    01:00 +8°C° 0.5 mm 3 mps 720 mmHg 95%
    02:00 +8°C° 0.5 mm 3 mps 720 mmHg 95%
    03:00 +8°C° 0.4 mm 3 mps 720 mmHg 95%
    04:00 +8°C° 0.4 mm 3 mps 720 mmHg 95%
    05:00 +8°C° 0.4 mm 3 mps 719 mmHg 95%
    06:00 +8°C° 0.4 mm 3 mps 720 mmHg 94%
    07:00 +9°C° 0.4 mm 3 mps 720 mmHg 92%
    08:00 +8°C° 0.4 mm 4 mps 720 mmHg 91%
    09:00 +10°C° 0.4 mm 4 mps 720 mmHg 90%
    10:00 +10°C° 0.4 mm 4 mps 720 mmHg 90%
    11:00 +10°C° 0.4 mm 4 mps 720 mmHg 89%
    12:00 +10°C° 0.3 mm 3 mps 720 mmHg 88%
    13:00 +11°C° 0.3 mm 3 mps 719 mmHg 87%
    14:00 +12°C° 0.3 mm 2 mps 719 mmHg 85%
    15:00 +13°C° 0.2 mm 2 mps 719 mmHg 83%
    16:00 +12°C° 0.2 mm 3 mps 719 mmHg 80%
    17:00 +13°C° 0.2 mm 3 mps 719 mmHg 77%
    18:00 +13°C° 0.2 mm 2 mps 719 mmHg 82%
    19:00 +12°C° 0.2 mm 2 mps 719 mmHg 86%
    20:00 +11°C° 0.2 mm 1 mps 718 mmHg 91%
    21:00 +10°C° 0 mm 1 mps 719 mmHg 92%
    22:00 +8°C° 0 mm 2 mps 719 mmHg 92%
    23:00 +8°C° 0 mm 2 mps 719 mmHg 92%

    Tomorrow, 4 June, Thursday

    Time Temperature Precipitation Wind Pressure Humidity
    00:00 +8°C° 0 mm 2 mps 719 mmHg 92%
    01:00 +7°C° 0 mm 2 mps 719 mmHg 92%
    02:00 +7°C° 0 mm 2 mps 719 mmHg 92%
    03:00 +7°C° 0 mm 2 mps 719 mmHg 92%
    04:00 +7°C° 0 mm 2 mps 719 mmHg 92%
    05:00 +7°C° 0 mm 2 mps 718 mmHg 92%
    06:00 +9°C° 0.1 mm 2 mps 719 mmHg 88%
    07:00 +12°C° 0.1 mm 2 mps 719 mmHg 84%
    08:00 +14°C° 0.1 mm 2 mps 719 mmHg 80%
    09:00 +14°C° 0.4 mm 3 mps 719 mmHg 75%
    10:00 +17°C° 0.4 mm 4 mps 719 mmHg 70%
    11:00 +17°C° 0.4 mm 5 mps 719 mmHg 65%
    12:00 +17°C° 0.4 mm 5 mps 718 mmHg 67%
    13:00 +17°C° 0.4 mm 5 mps 718 mmHg 69%
    14:00 +17°C° 0.4 mm 5 mps 718 mmHg 71%
    15:00 +19°C° 0.3 mm 5 mps 718 mmHg 71%
    16:00 +19°C° 0.3 mm 4 mps 718 mmHg 71%
    17:00 +19°C° 0.3 mm 4 mps 718 mmHg 71%
    18:00 +18°C° 0.3 mm 4 mps 717 mmHg 76%
    19:00 +16°C° 0.3 mm 3 mps 717 mmHg 81%
    20:00 +14°C° 0.3 mm 3 mps 717 mmHg 87%
    21:00 +14°C° 0.1 mm 3 mps 717 mmHg 88%
    22:00 +14°C° 0.1 mm 3 mps 717 mmHg 89%
    23:00 +14°C° 0.1 mm 3 mps 717 mmHg 90%

    Day after tomorrow, 5 June, Friday

    Time Temperature Precipitation Wind Pressure Humidity
    00:00 +14°C° 0.1 mm 3 mps 717 mmHg 91%
    01:00 +14°C° 0.1 mm 3 mps 716 mmHg 91%
    02:00 +14°C° 0.1 mm 3 mps 716 mmHg 91%
    03:00 +14°C° 0 mm 3 mps 716 mmHg 90%
    04:00 +14°C° 0 mm 4 mps 716 mmHg 88%
    05:00 +14°C° 0 mm 4 mps 716 mmHg 87%
    06:00 +15°C° 0 mm 4 mps 716 mmHg 83%
    07:00 +17°C° 0 mm 4 mps 717 mmHg 80%
    08:00 +16°C° 0 mm 5 mps 717 mmHg 77%
    09:00 +17°C° 0 mm 6 mps 717 mmHg 74%
    10:00 +18°C° 0 mm 7 mps 718 mmHg 71%
    11:00 +18°C° 0 mm 7 mps 718 mmHg 69%
    12:00 +20°C° 0 mm 7 mps 718 mmHg 67%
    13:00 +20°C° 0 mm 6 mps 718 mmHg 66%
    14:00 +21°C° 0 mm 6 mps 718 mmHg 65%
    15:00 +21°C° 0 mm 5 mps 718 mmHg 66%
    16:00 +21°C° 0 mm 5 mps 718 mmHg 68%
    17:00 +21°C° 0 mm 5 mps 718 mmHg 69%
    18:00 +20°C° 0 mm 4 mps 718 mmHg 72%
    19:00 +19°C° 0 mm 4 mps 718 mmHg 74%
    20:00 +18°C° 0 mm 3 mps 718 mmHg 77%
    21:00 +18°C° 0.1 mm 3 mps 718 mmHg 78%
    22:00 +18°C° 0.1 mm 4 mps 719 mmHg 79%
    23:00 +17°C° 0.1 mm 4 mps 719 mmHg 80%

    6 June, Saturday

    Time Temperature Precipitation Wind Pressure Humidity
    00:00 +17°C° 0.5 mm 4 mps 720 mmHg 84%
    01:00 +17°C° 0.5 mm 4 mps 720 mmHg 88%
    02:00 +16°C° 0.5 mm 3 mps 720 mmHg 91%
    03:00 +16°C° 0.3 mm 3 mps 721 mmHg 92%
    04:00 +16°C° 0.3 mm 3 mps 721 mmHg 92%
    05:00 +16°C° 0.3 mm 3 mps 722 mmHg 92%
    06:00 +17°C° 0.1 mm 3 mps 722 mmHg 90%
    07:00 +17°C° 0.1 mm 3 mps 723 mmHg 87%
    08:00 +18°C° 0.1 mm 4 mps 723 mmHg 85%
    09:00 +19°C° 0 mm 3 mps 724 mmHg 76%
    10:00 +21°C° 0 mm 3 mps 724 mmHg 68%
    11:00 +22°C° 0 mm 3 mps 725 mmHg 59%
    12:00 +24°C° 0.1 mm 3 mps 725 mmHg 58%
    13:00 +25°C° 0.1 mm 2 mps 725 mmHg 56%
    14:00 +25°C° 0.1 mm 2 mps 725 mmHg 54%
    15:00 +25°C° 0.4 mm 2 mps 725 mmHg 60%
    16:00 +24°C° 0.4 mm 3 mps 725 mmHg 66%
    17:00 +24°C° 0.4 mm 3 mps 724 mmHg 72%
    18:00 +21°C° 0.3 mm 2 mps 724 mmHg 79%
    19:00 +20°C° 0.3 mm 2 mps 724 mmHg 85%
    20:00 +19°C° 0.3 mm 1 mps 724 mmHg 92%
    21:00 +19°C° 0.1 mm 1 mps 724 mmHg 92%
    22:00 +18°C° 0.1 mm 1 mps 724 mmHg 93%
    23:00 +16°C° 0.1 mm 1 mps 724 mmHg 93%

    7 June, Sunday

    Time Temperature Precipitation Wind Pressure Humidity
    00:00 +16°C° 0 mm 1 mps 724 mmHg 93%
    01:00 +16°C° 0 mm 1 mps 724 mmHg 92%
    02:00 +16°C° 0 mm 1 mps 724 mmHg 91%
    03:00 +16°C° 0.6 mm 1 mps 724 mmHg 92%
    04:00 +16°C° 0.6 mm 1 mps 724 mmHg 93%
    05:00 +16°C° 0.6 mm 1 mps 724 mmHg 93%
    06:00 +19°C° 0.1 mm 1 mps 724 mmHg 91%
    07:00 +20°C° 0.1 mm 1 mps 724 mmHg 89%
    08:00 +21°C° 0.1 mm 1 mps 724 mmHg 88%
    09:00 +21°C° 0.4 mm 2 mps 724 mmHg 80%
    10:00 +24°C° 0.4 mm 2 mps 724 mmHg 73%
    11:00 +25°C° 0.4 mm 3 mps 725 mmHg 66%
    12:00 +26°C° 0.5 mm 3 mps 724 mmHg 64%
    13:00 +26°C° 0.5 mm 4 mps 724 mmHg 61%
    14:00 +27°C° 0.5 mm 4 mps 724 mmHg 59%
    15:00 +26°C° 0.8 mm 4 mps 724 mmHg 64%
    16:00 +24°C° 0.8 mm 3 mps 724 mmHg 69%
    17:00 +23°C° 0.8 mm 2 mps 724 mmHg 74%
    18:00 +21°C° 0.3 mm 2 mps 724 mmHg 77%
    19:00 +20°C° 0.3 mm 2 mps 724 mmHg 79%
    20:00 +18°C° 0.3 mm 2 mps 723 mmHg 81%
    21:00 +18°C° 0.1 mm 2 mps 724 mmHg 83%
    22:00 +17°C° 0.1 mm 2 mps 724 mmHg 86%
    23:00 +16°C° 0.1 mm 2 mps 724 mmHg 88%

    8 June, Monday

    Time Temperature Precipitation Wind Pressure Humidity
    00:00 +16°C° 0.1 mm 2 mps 724 mmHg 88%
    01:00 +16°C° 0.1 mm 2 mps 723 mmHg 88%
    02:00 +16°C° 0.1 mm 1 mps 723 mmHg 88%
    03:00 +15°C° 0 mm 1 mps 723 mmHg 88%
    04:00 +15°C° 0 mm 1 mps 723 mmHg 89%
    05:00 +15°C° 0 mm 1 mps 723 mmHg 89%
    06:00 +18°C° 0 mm 1 mps 723 mmHg 86%
    07:00 +19°C° 0 mm 1 mps 724 mmHg 82%
    08:00 +21°C° 0 mm 1 mps 724 mmHg 79%
    09:00 +22°C° 0.5 mm 1 mps 724 mmHg 76%
    10:00 +23°C° 0.5 mm 1 mps 724 mmHg 73%
    11:00 +24°C° 0.5 mm 1 mps 724 mmHg 70%
    12:00 +24°C° 1.3 mm 1 mps 724 mmHg 72%
    13:00 +24°C° 1.3 mm 1 mps 724 mmHg 74%
    14:00 +24°C° 1.3 mm 2 mps 724 mmHg 77%
    15:00 +24°C° 1.1 mm 2 mps 724 mmHg 78%
    16:00 +24°C° 1.1 mm 2 mps 724 mmHg 79%
    17:00 +24°C° 1.1 mm 2 mps 724 mmHg 80%
    18:00 +23°C° 0.5 mm 1 mps 724 mmHg 83%
    19:00 +21°C° 0.5 mm 1 mps 724 mmHg 85%
    20:00 +20°C° 0.5 mm 1 mps 724 mmHg 87%
    21:00 +19°C° 0 mm 1 mps 724 mmHg 88%
    22:00 +19°C° 0 mm 1 mps 724 mmHg 89%
    23:00 +18°C° 0 mm 1 mps 724 mmHg 91%
    Show more